Location: *
(33.3200°N, 8.3381°W)
Time: 14:03:38
(UTC+00:00)

SL-08 RB Rocket - Pass Details

Date: 09 April 2020
Orbit: 646 x 685 km, 97.8° (Epoch: 04 June)

Event Time Altitude Azimuth Distance (km) Brightness Sun altitude
Exits shadow 20:34:22 31° 162° (SSE) 1,161 4.6 -19.6°
Maximum altitude 20:36:32 83° 78° (ENE) 676 3.6 -20.1°
Drops below altitude 10° 20:41:09 10° 350° (N) 2,107 6.7 -20.9°
Sets 20:43:24 0° 350° (N) 3,030 7.6 -21.4°
